Météo par heure à 10-y Oktyabr

Ce jour, 17 Avril, Samedi

Heure Température Précipitation Vent Pression Humidité
00:00 +9°C° 0.3 mm 2 m/s 743 mmHg 81%
01:00 +10°C° 0 mm 1 m/s 743 mmHg 81%
02:00 +9°C° 0 mm 1 m/s 743 mmHg 81%
03:00 +8°C° 0 mm 0 m/s 744 mmHg 82%
04:00 +9°C° 0 mm 1 m/s 744 mmHg 84%
05:00 +8°C° 0 mm 1 m/s 744 mmHg 86%
06:00 +7°C° 0 mm 2 m/s 743 mmHg 89%
07:00 +8°C° 0.1 mm 2 m/s 743 mmHg 87%
08:00 +10°C° 0.1 mm 3 m/s 743 mmHg 85%
09:00 +11°C° 0.1 mm 4 m/s 743 mmHg 83%
10:00 +10°C° 1.1 mm 5 m/s 743 mmHg 84%
11:00 +10°C° 1.1 mm 6 m/s 743 mmHg 84%
12:00 +10°C° 1.1 mm 6 m/s 742 mmHg 85%
13:00 +10°C° 2.1 mm 6 m/s 743 mmHg 84%
14:00 +9°C° 2.1 mm 5 m/s 743 mmHg 83%
15:00 +9°C° 2.1 mm 5 m/s 743 mmHg 83%
16:00 +10°C° 0.3 mm 4 m/s 743 mmHg 84%
17:00 +9°C° 0.3 mm 3 m/s 742 mmHg 85%
18:00 +9°C° 0.3 mm 3 m/s 742 mmHg 86%
19:00 +8°C° 0.9 mm 2 m/s 743 mmHg 88%
20:00 +8°C° 0.9 mm 2 m/s 743 mmHg 89%
21:00 +7°C° 0.9 mm 2 m/s 743 mmHg 91%
22:00 +7°C° 0.1 mm 2 m/s 743 mmHg 91%
23:00 +6°C° 0.1 mm 2 m/s 743 mmHg 91%

Demain, 18 Avril, Dimanche

Heure Température Précipitation Vent Pression Humidité
00:00 +6°C° 0.1 mm 2 m/s 743 mmHg 90%
01:00 +7°C° 0 mm 1 m/s 743 mmHg 90%
02:00 +6°C° 0 mm 1 m/s 743 mmHg 90%
03:00 +5°C° 0 mm 0 m/s 743 mmHg 90%
04:00 +6°C° 0 mm 1 m/s 743 mmHg 91%
05:00 +6°C° 0 mm 1 m/s 743 mmHg 91%
06:00 +6°C° 0 mm 1 m/s 743 mmHg 91%
07:00 +7°C° 0 mm 1 m/s 744 mmHg 86%
08:00 +8°C° 0 mm 1 m/s 744 mmHg 81%
09:00 +8°C° 0 mm 2 m/s 744 mmHg 77%
10:00 +8°C° 0.2 mm 2 m/s 744 mmHg 77%
11:00 +8°C° 0.2 mm 2 m/s 744 mmHg 76%
12:00 +8°C° 0.2 mm 3 m/s 744 mmHg 76%
13:00 +8°C° 0.1 mm 3 m/s 744 mmHg 73%
14:00 +9°C° 0.1 mm 3 m/s 744 mmHg 70%
15:00 +9°C° 0.1 mm 3 m/s 744 mmHg 68%
16:00 +9°C° 0.2 mm 3 m/s 744 mmHg 69%
17:00 +9°C° 0.2 mm 3 m/s 744 mmHg 70%
18:00 +9°C° 0.2 mm 3 m/s 744 mmHg 72%
19:00 +8°C° 0.1 mm 3 m/s 745 mmHg 76%
20:00 +8°C° 0.1 mm 3 m/s 745 mmHg 81%
21:00 +7°C° 0.1 mm 3 m/s 745 mmHg 86%
22:00 +7°C° 0.1 mm 3 m/s 745 mmHg 88%
23:00 +6°C° 0.1 mm 4 m/s 745 mmHg 90%

Après-demain, 19 Avril, Lundi

Heure Température Précipitation Vent Pression Humidité
00:00 +5°C° 0.1 mm 4 m/s 745 mmHg 92%
01:00 +5°C° 0 mm 4 m/s 745 mmHg 93%
02:00 +5°C° 0 mm 4 m/s 745 mmHg 93%
03:00 +5°C° 0 mm 4 m/s 745 mmHg 94%
04:00 +5°C° 0 mm 4 m/s 745 mmHg 94%
05:00 +5°C° 0 mm 4 m/s 745 mmHg 93%
06:00 +5°C° 0 mm 4 m/s 745 mmHg 93%
07:00 +5°C° 0 mm 4 m/s 745 mmHg 90%
08:00 +6°C° 0 mm 5 m/s 745 mmHg 88%
09:00 +6°C° 0 mm 5 m/s 745 mmHg 85%
10:00 +7°C° 0.1 mm 5 m/s 745 mmHg 81%
11:00 +8°C° 0.1 mm 5 m/s 745 mmHg 77%
12:00 +8°C° 0.1 mm 5 m/s 745 mmHg 73%
13:00 +8°C° 0.3 mm 5 m/s 745 mmHg 74%
14:00 +8°C° 0.3 mm 6 m/s 745 mmHg 75%
15:00 +8°C° 0.3 mm 6 m/s 745 mmHg 75%
16:00 +8°C° 0.1 mm 6 m/s 744 mmHg 78%
17:00 +7°C° 0.1 mm 6 m/s 744 mmHg 82%
18:00 +6°C° 0.1 mm 7 m/s 744 mmHg 85%
19:00 +6°C° 0.2 mm 7 m/s 744 mmHg 86%
20:00 +5°C° 0.2 mm 7 m/s 744 mmHg 87%
21:00 +5°C° 0.2 mm 6 m/s 744 mmHg 88%
22:00 +5°C° 0 mm 7 m/s 744 mmHg 88%
23:00 +4°C° 0 mm 7 m/s 744 mmHg 88%

20 Avril, Mardi

Heure Température Précipitation Vent Pression Humidité
00:00 +4°C° 0 mm 7 m/s 743 mmHg 88%
01:00 +4°C° 0 mm 7 m/s 743 mmHg 88%
02:00 +4°C° 0 mm 6 m/s 743 mmHg 88%
03:00 +3°C° 0 mm 6 m/s 742 mmHg 89%
04:00 +3°C° 0.3 mm 6 m/s 742 mmHg 90%
05:00 +3°C° 0.3 mm 6 m/s 742 mmHg 91%
06:00 +3°C° 0.3 mm 7 m/s 741 mmHg 92%
07:00 +3°C° 0.3 mm 7 m/s 741 mmHg 92%
08:00 +3°C° 0.3 mm 7 m/s 740 mmHg 92%
09:00 +3°C° 0.3 mm 7 m/s 740 mmHg 92%
10:00 +3°C° 0.3 mm 7 m/s 739 mmHg 92%
11:00 +2°C° 0.3 mm 8 m/s 739 mmHg 92%
12:00 +2°C° 0.3 mm 8 m/s 738 mmHg 93%
13:00 +2°C° 0.6 mm 8 m/s 737 mmHg 93%
14:00 +2°C° 0.6 mm 9 m/s 736 mmHg 92%
15:00 +3°C° 0.6 mm 9 m/s 735 mmHg 92%
16:00 +3°C° 3 mm 10 m/s 734 mmHg 92%
17:00 +3°C° 3 mm 11 m/s 733 mmHg 92%
18:00 +3°C° 3 mm 11 m/s 732 mmHg 92%
19:00 +4°C° 1.9 mm 12 m/s 731 mmHg 91%
20:00 +4°C° 1.9 mm 12 m/s 730 mmHg 91%
21:00 +5°C° 1.9 mm 12 m/s 729 mmHg 91%
22:00 +6°C° 0.2 mm 10 m/s 729 mmHg 91%
23:00 +7°C° 0.2 mm 9 m/s 729 mmHg 91%

21 Avril, Mercredi

Heure Température Précipitation Vent Pression Humidité
00:00 +9°C° 0.2 mm 8 m/s 728 mmHg 91%
01:00 +7°C° 0.3 mm 8 m/s 728 mmHg 90%
02:00 +7°C° 0.3 mm 8 m/s 728 mmHg 89%
03:00 +7°C° 0.3 mm 8 m/s 728 mmHg 88%
04:00 +7°C° 0.1 mm 8 m/s 728 mmHg 88%
05:00 +6°C° 0.1 mm 8 m/s 728 mmHg 87%
06:00 +6°C° 0.1 mm 8 m/s 728 mmHg 87%
07:00 +4°C° 0.2 mm 8 m/s 729 mmHg 89%
08:00 +2°C° 0.2 mm 8 m/s 730 mmHg 92%
09:00 0°C° 0.2 mm 7 m/s 731 mmHg 94%
10:00 +1°C° 0 mm 8 m/s 732 mmHg 90%
11:00 +2°C° 0 mm 8 m/s 733 mmHg 86%
12:00 +2°C° 0 mm 8 m/s 734 mmHg 82%
13:00 +4°C° 0 mm 8 m/s 734 mmHg 79%
14:00 +5°C° 0 mm 9 m/s 735 mmHg 77%
15:00 +6°C° 0 mm 9 m/s 736 mmHg 75%
16:00 +6°C° 0 mm 8 m/s 736 mmHg 75%
17:00 +6°C° 0 mm 8 m/s 737 mmHg 75%
18:00 +7°C° 0 mm 8 m/s 737 mmHg 75%
19:00 +6°C° 0 mm 7 m/s 738 mmHg 77%
20:00 +5°C° 0 mm 6 m/s 739 mmHg 80%
21:00 +4°C° 0 mm 6 m/s 739 mmHg 82%
22:00 +5°C° 0 mm 5 m/s 740 mmHg 83%
23:00 +5°C° 0 mm 5 m/s 740 mmHg 85%

22 Avril, Jeudi

Heure Température Précipitation Vent Pression Humidité
00:00 +3°C° 0 mm 5 m/s 740 mmHg 86%
01:00 +4°C° 0 mm 4 m/s 741 mmHg 88%
02:00 +4°C° 0 mm 4 m/s 741 mmHg 89%
03:00 +3°C° 0 mm 4 m/s 741 mmHg 91%
04:00 +3°C° 0 mm 4 m/s 741 mmHg 91%
05:00 +3°C° 0 mm 4 m/s 742 mmHg 91%
06:00 +3°C° 0 mm 4 m/s 742 mmHg 91%
07:00 +5°C° 0 mm 4 m/s 743 mmHg 87%
08:00 +6°C° 0 mm 4 m/s 743 mmHg 82%
09:00 +7°C° 0 mm 5 m/s 744 mmHg 77%
10:00 +9°C° 0.1 mm 5 m/s 744 mmHg 71%
11:00 +10°C° 0.1 mm 6 m/s 744 mmHg 65%
12:00 +11°C° 0.1 mm 6 m/s 744 mmHg 59%
13:00 +13°C° 0.3 mm 6 m/s 744 mmHg 58%
14:00 +13°C° 0.3 mm 6 m/s 744 mmHg 56%
15:00 +14°C° 0.3 mm 6 m/s 744 mmHg 55%
16:00 +13°C° 0.4 mm 5 m/s 745 mmHg 59%
17:00 +13°C° 0.4 mm 4 m/s 745 mmHg 62%
18:00 +12°C° 0.4 mm 4 m/s 745 mmHg 66%
19:00 +11°C° 0.1 mm 3 m/s 746 mmHg 71%
20:00 +10°C° 0.1 mm 3 m/s 746 mmHg 77%
21:00 +9°C° 0.1 mm 2 m/s 746 mmHg 82%
22:00 +8°C° 0 mm 2 m/s 746 mmHg 83%
23:00 +8°C° 0 mm 2 m/s 747 mmHg 84%
Voir plus

Nous avons besoin de votre consentement

Meteoprog et ses fournisseurs de services peuvent stocker et accéder à des données personnelles telles que des cookies, des identifiants d'appareils ou d'autres technologies similaires sur votre appareil et traiter ces données pour personnaliser le contenu et les publicités, ainsi que pour fournir des fonctionnalités de médias sociaux et analyser le trafic.

  • Stocker et/ou accéder à des informations sur votre appareil

    Des cookies, des identifiants d'appareils ou d'autres informations peuvent être stockés ou accessibles sur votre appareil aux fins indiquées ci-dessus.

  • Annonces et contenus personnalisés, mesure des annonces et des contenus, connaissance de l'audience et développement de produits

    Les annonces et le contenu peuvent être personnalisés en fonction d'un profil. D'autres données peuvent être ajoutées pour mieux personnaliser les annonces et le contenu. Les performances des publicités et du contenu peuvent être mesurées. Il est possible d'obtenir des informations sur le public qui a vu les publicités et le contenu. Ces données peuvent être utilisées pour développer ou améliorer l'expérience de l'utilisateur, les systèmes et les logiciels.

En cliquant sur "J'accepte", vous autorisez l'utilisation de cookies, des identifiants d'appareils, des balises web ou d'autres technologies similaires. Vos paramètres peuvent être modifiés dans le navigateur de votre appareil.

Dans certains cas, des intérêts légitimes peuvent être invoqués plutôt qu'un consentement. Vous pouvez en savoir plus à ce sujet dans notre Politique de confidentialité et de cookies.